Content
SEND FEEDBACK

Daily
Averages
Monthly
Summary
Canada

SUDBURY, ONTARIO


Home > North America > Canada > Ontario
Elevation: 1140 feet     Latitude: 46 37N     Longitude: 080 48W

WEATHER
 
SELECT A DAY
Number of Records: 184,019;   Date Range: 1/1/95 - 8/27/14
 
SHARE

PRINT THIS DATA

[ ← Previous Day ]
WEATHER ALMANAC - FEBRUARY 24, 2013
[ Next Day → ]
[ °C ]   °F
Weather ElementAverageHighLow
Temperature17.7 °F30.2 °F (1:00 pm) (12:39 am)
Dewpoint14.6 °F26 °F (1:00 am) (7:00 pm)
Humidity81.2 %93 % (2:00 am)69 % (1:00 pm)
Wind Speed6.5 mph10.4 mph (12:00 pm)
Weather ElementAverage
Visibility8.1 mi
Wind Direction (716.2 °)

Weather ElementTotal
Precipitation---
Heating Degree Days49.9 (Base 65)
Averaged from 42 records on February 24, 2013
WEATHER CONDITIONS BREAKOUT
WIND DIRECTION BREAKOUT
WEATHER BY HOUR - FEBRUARY 24, 2013
[ °C ]   °F
Local TimeTemperatureDewpointHumidityBarometerVisibilityWind DirectionWind SpeedGust SpeedPrecipitationEventsConditions
12:39 AM0.0 °F0.0 °F0.0 mi2.3 (2013°)0.00 inLight Freezing Fog270
1:00 AM28.0 °F26.0 °F86 %29.81 in0.0 miWSW (250°)3.5 mphSnowLight Snow
1:00 AM28.4 °F24.8 °F86 %29.81 in0.2 miWSW (250°)3.5 mphFog-SnowLight Snow
1:25 AM0.0 °F0.0 °F0.0 mi3.5 (2013°)0.00 inLight Freezing Fog280
2:00 AM26.6 °F24.8 °F93 %29.80 in0.5 miWest (280°)3.5 mphFog-SnowLight Snow
2:09 AM0.0 °F0.0 °F0.0 mi3.5 (2013°)Overcast280
2:36 AM0.0 °F0.0 °F0.0 mi3.5 (2013°)0.00 inLight Freezing Fog290
3:00 AM26.6 °F24.8 °F93 %29.80 in0.5 miNW (310°)4.6 mphFog-SnowLight Snow
3:46 AM0.0 °F0.0 °F0.0 mi4.6 (2013°)0.00 inLight Freezing Fog300
4:00 AM26.6 °F24.8 °F93 %29.80 in0.4 miWest (280°)4.6 mphFog-SnowLight Snow
5:00 AM26.6 °F23.0 °F86 %29.81 in0.4 miWNW (300°)3.5 mphFog-SnowLight Snow
5:10 AM0.0 °F0.0 °F0.0 mi3.5 (2013°)0.00 inLight Freezing Fog290
5:32 AM0.0 °F0.0 °F0.0 mi4.6 (2013°)Overcast300
5:54 AM0.0 °F0.0 °F1.0 miNW (310°)4.6 mphOvercast
6:00 AM26.6 °F23.0 °F86 %29.82 in1.2 miWNW (300°)4.6 mphSnowLight Snow
6:49 AM0.0 °F0.0 °F0.0 mi4.6 (2013°)Overcast300
7:00 AM24.8 °F23.0 °F93 %29.84 in0.8 miNW (310°)5.8 mphSnowLight Snow
7:00 AM25.0 °F22.0 °F84 %29.84 in1.0 miWNW (300°)5.8 mphSnowLight Snow
7:16 AM0.0 °F0.0 °F0.0 mi5.8 (2013°)0.00 inLight Freezing Fog310
7:43 AM0.0 °F0.0 °F0.0 mi5.8 (2013°)Overcast310
8:00 AM24.8 °F21.2 °F86 %29.86 in1.0 miNW (310°)4.6 mphSnowLight Snow
8:25 AM0.0 °F0.0 °F3.0 miNW (310°)4.6 mphOvercast
9:00 AM26.6 °F23.0 °F86 %29.86 in5.0 miNW (320°)5.8 mphSnowLight Snow
9:41 AM0.0 °F0.0 °F10.0 miNNW (330°)8.1 mph
10:00 AM28.4 °F24.8 °F86 %29.88 in15.0 miNorth (360°)6.9 mphSnowLight Snow
11:00 AM28.4 °F24.8 °F86 %29.89 in20.0 miNorth (350°)8.1 mphSnowLight Snow
12:00 PM28.4 °F23.0 °F80 %29.90 in20.0 miNNE (30°)10.4 mphOvercast
1:00 PM30.2 °F23.0 °F75 %29.91 in20.0 miNorth (360°)8.1 mphOvercast
1:00 PM29.0 °F23.0 °F69 %29.91 in19.0 miNorth (350°)8.1 mphPartly Cloudy
2:00 PM30.2 °F21.2 °F69 %29.92 in20.0 miNNW (340°)10.4 mphOvercast
3:00 PM30.2 °F23.0 °F75 %29.94 in20.0 miNNW (340°)10.4 mphOvercast
4:00 PM30.2 °F21.2 °F69 %29.96 in20.0 miNorth (350°)9.2 mphOvercast
5:00 PM28.4 °F21.2 °F74 %29.98 in20.0 miNNW (340°)8.1 mphOvercast
6:00 PM28.4 °F21.2 °F74 %30.01 in20.0 miNW (320°)8.1 mphOvercast
6:42 PM0.0 °F0.0 °F15.0 miNNW (340°)8.1 mph
7:00 PM28.0 °F22.0 °F69 %30.04 in15.0 miNNW (340°)8.1 mphSnowLight Snow
7:00 PM28.4 °F21.2 °F74 %30.04 in15.0 miNNW (340°)9.2 mphSnowLight Snow
7:52 PM0.0 °F0.0 °F15.0 miNNW (330°)5.8 mphOvercast
8:00 PM26.6 °F21.2 °F80 %30.06 in15.0 miNNW (340°)5.8 mphOvercast
9:00 PM26.6 °F21.2 °F80 %30.08 in15.0 miNW (310°)4.6 mphSnowLight Snow
10:00 PM26.6 °F21.2 °F80 %30.08 in15.0 miNNW (330°)5.8 mphSnowLight Snow
11:00 PM26.6 °F21.2 °F80 %30.09 in15.0 miNW (320°)6.9 mphSnowLight Snow
Hourly data recorded from CYSB, located miles away from Sudbury, Ontario







STORIES FROM OUR PARTNERS